sat.trackr.live / text

‹ back to catalog

STARLINK-36519

NORAD 67449 · 2026-008E

PAYLOAD ACTIVE UNKNOWN

§ Identity

Operator
Country
US
Launch date
2026-01-14
Launch site
AFETR
Launch vehicle
Mass (kg)
RCS (m²)

Purposes: comms

External: N2YO · Heavens-Above · Gunter

§ Orbital elements

Epoch: 2026-05-25T00:22:31.448928Z

Period
94.27 min
Inclination
42.9964°
Eccentricity
0.0000807
Mean motion
15.27593692 rev/d
Perigee alt
482.5 km
Apogee alt
483.6 km
Semi-major
6,861.1 km
B*
6.1718e-4
RAAN
134.3139°
Arg perigee
259.6949°
Mean anomaly
100.3812°
Rev number
2,124

§ Raw data

STARLINK-365191 67449U 26008E   26145.01564177  .00016767  00000+0  61718-3 0  99972 67449  42.9964 134.3139 0000807 259.6949 100.3812 15.27593692 21242

JSON: /api/v1/satellites/67449 · /tle

For live sub-satellite position, see the globe view (requires WebGL).

§ Visibility from observer

Set your observer location to see the next 7 days of passes ≥ 10°. The values pass through the URL so the page stays shareable.

No JS? Fill the form by hand. The geolocation button needs JavaScript.